Wind_Speed
3 2 4 2 3 2 1 2 2 2 3 6 5 2 1 3 2 2 1 2 4 2 2 4 4 4 4 5 6 5 5 4 1 3 5 5 6 7 6 7 8 10 14 18 20 22 24 24 25 27 29 30 31 31 31 32 32 31 32 33 31 30 29
3 1 5 5 3 3 3 2 4 3 3 4 4 2 3 3 1 3 1 2 4 1 2 3 4 4 5 6 5 4 5 5 3 2 3 4 5 5 4 4 5 8 12 17 21 23 26 28 29 29 30 31 32 32 31 32 32 32 33 33 31 30 30
2 5 6 4 5 4 4 4 3 2 3 1 1 2 1 0 1 3 3 2 3 3 3 2 0 1 3 5 5 5 5 4 4 4 3 4 4 3 3 2 2 3 4 5 7 7 9 15 21 27 31 31 30 30 31 31 33 33 34 33 32 30 31
2 5 4 1 3 5 5 3 2 2 2 3 1 2 2 2 1 2 3 3 2 5 5 4 5 5 4 3 4 4 4 4 3 4 4 3 3 3 3 3 3 3 6 7 5 4 1 5 11 14 21 27 29 30 29 30 31 31 31 32 31 31 31
2 1 1 3 4 3 3 2 2 1 2 2 2 2 2 2 3 2 1 2 4 5 4 6 6 5 5 4 3 3 3 4 4 4 4 4 2 2 3 5 4 4 8 13 15 15 16 19 18 14 16 22 27 29 29 29 29 29 30 31 32 32 32
1 4 5 4 5 4 5 4 3 3 3 3 3 1 2 1 3 3 3 1 6 5 3 4 5 4 4 4 3 3 4 3 3 4 4 4 4 3 4 3 4 5 8 14 17 18 19 22 24 21 18 20 23 26 29 29 29 29 30 31 32 33 32
3 7 7 2 3 3 4 3 3 4 4 4 5 2 3 1 2 1 3 1 6 5 2 2 3 4 4 3 3 3 3 2 2 4 4 4 3 3 4 3 2 3 8 14 18 19 18 19 22 23 22 21 23 26 27 28 29 30 31 32 33 33 33
4 6 5 3 3 5 4 1 2 4 2 3 5 4 3 3 3 2 3 1 5 5 2 1 1 2 3 2 3 3 3 1 1 3 3 4 4 4 4 3 2 3 4 9 14 17 20 21 21 22 23 23 25 26 26 27 29 31 31 31 31 32 32
5 5 5 5 4 2 2 1 1 3 4 6 4 2 3 2 3 4 4 2 6 5 3 2 2 3 4 4 3 3 3 0 1 2 3 3 4 4 5 4 3 2 2 4 7 12 18 22 23 24 24 23 25 27 28 28 30 30 31 31 30 31 32
2 1 2 3 2 1 0 1 2 2 4 7 4 2 4 1 3 4 4 4 5 6 4 2 2 2 3 6 4 3 3 1 1 2 3 3 3 3 5 5 4 2 1 1 4 7 11 17 22 25 25 23 24 27 29 30 31 30 30 30 30 30 31
7 6 7 6 3 3 0 1 1 3 4 5 5 4 2 3 4 2 5 5 3 7 6 4 5 3 4 6 4 4 3 1 1 2 3 3 3 3 4 4 4 3 2 0 2 5 8 12 15 20 23 23 24 25 28 30 31 31 30 29 29 30 30
7 7 5 2 3 3 3 2 2 3 4 5 5 4 4 5 6 2 7 5 3 7 6 6 6 5 5 5 5 4 3 1 1 2 2 3 3 3 3 3 4 4 3 2 1 2 6 9 12 14 17 21 23 24 25 27 29 30 30 29 29 29 29
4 4 3 1 3 3 3 4 5 4 5 7 7 6 6 7 7 5 5 6 6 7 6 6 5 4 4 4 4 2 1 1 2 2 2 3 4 4 4 4 4 4 3 2 2 3 5 7 10 13 15 19 21 23 23 24 26 28 29 29 29 29 28
1 2 4 4 5 3 1 3 5 5 6 9 8 5 5 5 4 4 4 7 8 8 6 4 2 3 4 2 1 1 2 2 2 2 2 2 2 3 4 4 4 4 4 4 3 4 5 6 9 12 15 18 20 23 24 24 25 27 28 29 29 29 29
2 2 1 3 3 3 3 3 3 1 4 5 4 2 4 3 1 2 4 3 6 7 4 3 2 3 3 4 3 2 1 1 2 2 2 2 2 3 4 4 4 4 5 5 5 5 6 7 8 10 14 16 19 22 24 24 25 25 26 28 29 30 31
2 2 4 4 4 4 1 5 4 3 4 4 4 3 5 5 4 4 3 1 5 5 2 3 3 3 4 3 2 2 1 1 1 2 3 3 4 4 4 4 4 5 6 6 6 8 9 9 9 9 11 13 16 21 23 25 25 24 24 26 29 30 31
3 3 3 4 4 5 3 5 4 5 4 3 3 2 4 6 6 5 4 5 5 4 1 3 3 4 4 2 2 2 1 1 2 3 4 4 4 3 3 5 5 4 5 7 8 11 11 11 11 11 11 11 14 17 20 23 25 25 25 26 28 30 31
3 4 2 3 2 0 4 6 4 6 5 5 5 3 4 5 4 3 4 3 3 2 1 4 3 3 3 2 2 3 3 2 3 3 4 4 4 4 4 5 5 5 7 9 12 14 15 14 13 13 12 12 13 15 17 20 22 24 25 26 27 29 30
3 1 4 3 3 6 6 5 4 5 5 5 5 2 1 4 3 2 1 1 3 2 3 3 3 2 3 3 3 3 3 3 3 3 4 4 4 4 5 5 5 6 9 11 14 15 16 15 15 14 13 13 13 14 15 17 19 22 24 26 27 28 29
2 2 3 3 6 7 5 6 4 2 3 4 4 3 3 5 5 4 4 4 4 3 3 2 2 2 2 1 1 3 4 4 4 3 4 4 4 4 5 6 7 9 12 14 15 15 15 15 15 15 15 15 16 16 16 16 18 20 22 25 27 27 28
2 3 2 2 3 4 4 4 3 3 4 4 5 2 4 6 5 5 5 4 4 4 4 2 1 0 1 3 3 2 3 4 4 4 4 5 5 6 7 9 11 13 15 16 16 15 15 16 16 16 17 17 18 18 17 17 18 19 21 23 25 26 28
2 4 1 1 1 2 5 7 6 3 3 5 6 4 3 6 5 6 5 5 5 4 4 3 0 2 3 2 4 3 1 3 4 3 4 5 5 7 8 11 13 15 16 16 16 17 18 18 18 18 18 19 18 18 19 18 18 20 21 22 24 25 26
2 4 3 3 4 5 7 8 7 3 3 5 5 4 4 6 6 7 5 6 6 4 5 4 2 4 2 3 5 3 2 4 3 3 4 4 4 7 8 10 13 14 15 15 17 18 18 19 20 20 20 20 19 19 21 20 19 21 21 22 23 24 24
3 4 3 3 3 4 5 6 4 2 4 6 7 2 5 6 6 6 6 6 6 5 5 4 4 4 4 4 4 3 4 3 2 2 3 3 4 8 9 10 12 13 14 15 16 17 17 18 19 20 20 21 20 22 24 23 22 23 22 21 21 23 23
3 4 3 2 3 4 5 5 4 4 3 4 4 5 7 5 6 6 6 7 6 6 7 5 3 4 4 3 3 5 5 4 3 3 5 5 7 9 8 9 11 12 14 14 14 15 16 17 18 18 18 18 20 25 27 26 26 26 24 22 21 22 23
3 3 3 0 3 5 5 3 3 4 4 2 5 6 4 5 7 6 5 6 5 6 7 5 3 3 2 3 5 6 6 5 5 5 7 8 7 6 6 8 9 11 12 12 13 14 15 16 16 17 16 15 18 23 26 27 30 29 25 22 21 21 22
3 2 3 2 2 5 7 7 3 2 4 5 5 3 1 3 6 7 5 5 5 6 5 4 4 4 5 6 6 5 5 5 5 6 6 5 4 4 6 7 7 8 9 10 12 13 14 15 16 16 15 15 15 17 21 24 25 24 22 22 21 22 23
4 3 2 3 4 6 7 8 5 5 5 5 5 6 3 2 3 5 5 5 5 7 6 5 5 6 6 6 6 5 5 5 4 5 4 3 3 4 5 6 6 7 7 9 11 12 13 14 14 14 14 13 12 12 13 15 14 13 16 20 21 22 24
4 5 6 6 4 4 5 4 3 4 4 3 5 7 5 3 4 4 5 5 6 6 7 7 6 6 7 7 6 5 6 5 4 3 2 1 2 4 4 5 6 6 6 8 10 11 12 13 14 15 14 13 12 13 11 6 5 9 15 19 22 22 24
3 3 3 3 2 2 3 2 2 3 3 3 5 5 4 4 5 4 4 5 6 6 7 8 6 7 8 8 7 6 6 5 3 2 0 1 2 3 5 5 5 5 6 8 10 12 14 16 17 16 15 14 14 14 11 6 5 9 13 17 18 20 22
2 2 3 4 3 3 3 1 1 2 3 3 4 5 4 4 5 5 3 4 6 7 7 7 7 7 9 9 7 6 5 4 2 1 1 1 2 3 4 4 4 6 8 10 11 12 15 17 18 17 17 17 16 15 14 12 11 11 11 11 12 13 14
3 3 6 6 4 4 3 2 3 3 4 4 4 3 3 4 5 4 2 4 6 6 6 6 7 8 9 9 7 5 4 3 2 2 0 0 2 3 4 4 6 8 10 11 12 13 15 17 19 19 19 19 18 17 17 15 16 18 17 17 19 21 20
2 3 5 3 3 4 5 4 4 4 4 4 5 4 5 6 6 5 3 2 4 6 6 6 7 8 9 8 7 6 4 3 3 2 2 2 3 4 5 6 8 10 11 12 14 16 17 18 19 19 21 21 19 19 19 19 21 24 24 23 24 26 27
2 4 5 3 2 1 5 5 6 5 4 5 6 5 5 6 6 6 5 4 3 4 6 7 8 8 8 7 7 5 4 4 5 5 5 5 4 5 6 7 10 11 13 14 15 17 18 19 19 20 21 20 20 20 20 21 24 27 28 28 28 28 28
4 6 6 4 3 3 5 5 5 4 3 5 6 6 6 6 6 6 7 6 4 3 4 7 8 7 7 8 8 5 4 6 7 7 7 6 6 6 5 7 10 11 12 14 16 17 18 19 20 21 21 21 20 20 20 22 25 27 29 29 27 26 27
4 5 6 6 4 3 4 3 5 4 4 5 5 4 5 5 5 5 6 6 6 5 4 5 7 8 9 10 10 7 5 7 10 10 8 5 6 5 2 5 8 9 11 14 16 17 18 19 20 20 20 20 19 20 21 23 25 29 30 29 28 27 27
4 4 3 5 4 2 2 1 3 2 2 4 4 4 4 5 6 6 6 5 6 7 6 4 5 10 12 12 10 9 8 8 11 11 7 5 5 4 2 5 7 8 10 13 16 17 19 20 19 19 19 19 18 19 22 24 26 28 30 29 28 27 27
Wind_Direction
16 133 160 118 86 139 144 78 131 213 157 119 112 144 58 72 125 254 247 249 296 319 278 292 348 354 346 4 10 16 4 1 117 199 221 211 213 210 203 204 200 197 196 196 196 196 197 198 198 199 200 201 202 203 204 205 207 208 209 212 217 221 222
347 335 101 69 45 128 112 128 197 196 101 95 103 116 19 39 179 271 311 232 284 324 249 299 3 9 346 349 355 7 15 21 25 290 250 223 218 211 209 213 207 204 203 202 201 200 200 200 199 200 203 204 205 205 206 206 206 208 210 212 216 220 221
289 346 66 53 358 52 109 165 173 117 116 143 43 109 140 74 216 287 313 293 262 208 225 268 81 286 306 320 335 1 12 9 356 326 295 248 227 207 197 190 178 193 206 212 209 205 211 213 210 206 204 205 206 207 208 208 210 211 211 213 215 218 220
318 1 62 141 330 28 55 64 47 45 125 154 134 119 157 162 161 268 309 333 284 229 220 179 184 221 238 264 312 344 334 321 324 320 313 279 227 187 166 163 159 146 138 142 140 106 73 261 257 238 217 208 206 209 210 210 212 213 212 213 214 217 219
41 76 141 177 177 119 80 49 23 21 72 122 143 79 80 127 139 180 261 319 273 251 213 170 189 221 213 210 249 284 290 305 320 317 316 310 278 212 197 185 168 146 146 158 170 176 188 209 226 238 235 223 213 210 211 212 213 213 212 213 214 216 219
108 237 259 212 188 166 147 160 177 155 117 119 125 1 321 90 116 163 158 251 271 261 213 183 189 205 217 206 204 246 276 292 312 314 309 309 304 272 252 224 172 160 160 166 176 180 187 204 214 216 223 228 223 217 213 213 214 213 214 215 215 217 219
234 265 278 222 171 138 120 128 146 140 126 117 126 185 244 120 91 127 121 170 270 269 254 220 200 205 228 211 188 230 275 270 274 296 308 311 309 304 299 293 253 210 185 177 176 178 188 203 212 214 216 219 223 223 219 216 216 216 217 218 217 218 219
308 310 324 23 72 89 94 56 86 119 133 125 139 170 170 136 152 140 91 288 271 281 313 322 260 261 273 253 212 229 261 261 252 297 329 334 325 331 337 332 317 300 246 201 184 178 189 202 209 215 218 217 217 220 221 220 220 220 220 220 219 218 219
349 348 351 352 349 53 117 130 82 104 109 101 109 126 85 93 189 149 120 239 255 273 313 349 346 338 313 284 255 232 238 171 76 314 332 335 329 339 341 337 333 333 311 255 225 199 196 201 208 214 218 218 216 215 216 219 222 223 222 221 220 219 220
166 201 257 265 252 232 126 94 107 111 109 112 130 118 78 106 203 142 143 216 260 291 304 298 296 326 290 280 279 264 258 98 92 297 311 321 337 343 331 325 322 322 11 309 287 259 227 217 214 215 218 219 218 215 215 216 220 223 223 222 221 220 220
182 187 212 222 166 126 222 332 126 144 125 112 111 106 133 185 161 171 215 202 263 302 290 265 263 247 245 263 270 271 288 29 68 279 301 325 341 342 327 323 322 328 338 305 290 282 268 256 238 226 222 221 220 217 215 216 218 220 221 222 221 220 220
198 183 207 232 110 129 172 180 232 202 143 121 122 152 200 164 124 254 253 183 186 273 263 244 249 236 233 256 262 267 289 357 6 307 329 349 354 353 354 347 334 335 339 333 333 289 273 267 260 249 238 232 228 223 219 217 217 218 218 219 220 221 221
198 178 233 245 114 117 162 176 228 231 158 164 187 199 195 154 144 228 235 169 192 248 250 241 244 211 200 232 246 265 342 43 25 2 0 8 2 355 359 355 334 323 313 303 306 301 282 257 250 251 249 244 239 234 228 222 220 220 218 217 218 220 220
99 195 230 196 137 120 189 210 232 230 195 200 209 203 185 170 172 201 169 171 221 246 233 229 236 153 158 154 108 63 63 61 36 18 354 5 11 356 351 343 328 316 307 307 307 306 299 273 254 246 244 245 243 240 235 229 225 224 220 217 218 218 219
348 320 100 121 115 140 203 273 292 212 191 213 220 178 174 187 211 159 123 154 256 262 220 176 129 119 111 80 70 79 93 74 32 2 315 316 318 315 326 326 322 319 317 322 323 320 315 301 283 261 249 244 242 241 239 234 231 228 223 220 219 218 219
268 307 64 70 52 72 40 313 295 173 158 190 211 190 183 183 169 147 123 237 263 269 238 135 105 93 94 96 119 123 102 324 341 304 282 282 280 291 311 313 318 323 324 327 325 322 321 316 309 295 274 256 246 242 240 237 235 232 227 223 220 221 222
227 290 50 83 63 51 346 284 230 187 184 192 192 203 202 183 150 145 188 226 243 267 262 111 83 75 100 132 167 160 191 237 236 253 260 267 279 296 306 298 303 309 307 311 311 311 313 312 312 310 298 278 262 254 249 244 238 233 231 227 224 224 224
210 287 9 94 96 126 250 249 204 189 208 194 173 191 216 196 168 174 203 228 260 273 151 133 114 90 112 149 204 194 195 197 210 251 271 283 299 310 296 288 297 301 300 304 305 305 307 309 313 314 306 292 282 273 264 255 245 237 233 230 226 226 226
160 338 41 103 213 234 244 281 276 211 202 175 152 136 225 210 221 236 216 246 241 202 134 133 137 118 134 172 207 207 199 196 203 243 274 286 297 300 297 298 299 296 298 300 300 302 306 311 316 315 310 304 297 287 275 264 254 244 237 232 228 226 225
139 90 92 159 237 258 286 322 312 183 141 129 118 58 301 233 203 185 185 209 203 148 105 109 134 148 165 169 241 222 203 202 206 217 243 261 269 274 281 287 288 291 295 295 298 302 306 311 314 312 310 307 302 294 283 271 261 249 240 236 232 227 225
147 138 167 232 281 300 307 302 259 173 149 162 150 138 267 244 195 170 174 183 177 135 114 120 143 138 67 28 347 277 203 201 216 222 231 241 258 272 280 285 289 293 295 297 303 308 311 312 312 310 310 307 302 295 287 277 267 255 243 236 233 229 225
113 105 112 274 244 255 250 243 247 230 170 172 145 122 272 259 209 183 171 162 166 146 130 152 257 33 46 352 301 286 248 229 219 221 238 247 259 274 285 292 294 297 301 306 312 317 318 317 315 314 313 310 303 294 286 278 271 261 248 239 235 231 228
125 120 138 183 193 230 240 234 251 268 165 148 100 64 307 267 208 180 165 160 169 161 151 160 116 77 78 265 263 250 231 229 207 196 219 234 257 269 276 284 288 296 308 315 317 319 320 319 318 318 315 310 302 291 284 279 273 265 255 246 239 233 230
170 144 155 212 218 237 246 235 236 213 140 109 83 60 271 252 198 174 163 168 179 169 154 141 115 133 183 231 240 201 185 187 171 188 209 227 265 269 273 285 295 307 320 323 322 324 323 320 319 317 313 307 298 289 284 278 270 263 258 254 247 238 231
163 155 169 248 251 238 242 236 199 164 120 80 111 205 236 213 179 179 171 173 178 161 153 156 170 195 206 201 171 164 163 158 150 185 213 232 257 267 280 303 315 322 327 328 327 325 323 321 319 315 311 302 290 285 283 276 269 264 259 254 249 241 232
151 155 149 213 272 238 194 164 155 146 133 167 208 218 220 171 168 180 181 180 179 167 168 179 186 190 190 167 162 168 172 171 172 197 223 240 257 277 301 321 330 332 333 332 331 329 328 326 322 320 316 301 286 281 277 273 273 269 256 244 239 234 227
133 80 89 110 244 224 163 131 114 149 172 203 210 191 147 176 169 168 181 191 183 176 175 169 157 155 161 168 172 173 175 179 188 210 234 258 290 315 325 333 340 342 339 336 335 338 339 333 327 327 322 308 295 285 277 276 280 273 250 231 224 220 216
133 117 171 193 211 215 181 149 154 199 204 194 169 144 148 209 182 163 183 205 198 180 166 154 157 163 168 174 174 165 170 190 213 229 252 298 327 325 326 340 352 355 351 346 345 348 349 341 335 338 334 323 320 320 305 291 284 267 236 217 209 208 206
167 173 210 228 226 225 212 176 172 212 217 187 155 141 141 190 195 170 178 199 201 177 150 143 157 171 176 178 174 168 181 200 212 221 256 337 325 313 329 356 7 7 5 1 359 0 1 357 354 356 356 352 354 358 350 318 244 212 204 200 198 198 197
233 210 228 259 274 268 246 220 200 206 200 176 157 140 138 178 185 172 182 191 179 161 146 145 162 184 183 177 175 179 189 204 209 194 138 1 318 330 359 13 15 19 22 19 17 14 12 12 10 9 14 21 20 20 30 60 129 167 178 183 186 188 186
192 225 302 315 301 285 277 243 192 180 171 170 166 161 168 177 168 170 185 164 149 155 158 153 161 178 178 171 173 179 185 196 201 154 77 355 348 13 29 31 37 47 41 30 26 22 18 20 21 20 26 36 40 46 58 76 99 113 117 120 124 132 142
171 232 281 298 290 279 272 211 184 184 174 158 141 142 146 128 122 133 136 130 142 158 166 157 155 165 173 171 171 174 180 185 178 158 151 346 33 47 55 67 65 57 47 39 37 34 29 27 28 30 35 41 49 59 66 77 92 92 82 80 88 92 96
311 270 268 295 341 329 308 263 224 221 197 152 117 106 117 117 114 113 100 107 151 159 161 158 151 157 171 174 168 168 170 166 168 171 161 116 85 76 80 80 67 56 54 54 51 45 40 37 36 37 40 42 48 60 69 77 85 86 81 80 84 87 90
292 253 227 201 138 249 262 243 221 218 191 138 120 121 128 134 142 137 112 77 87 136 155 160 153 156 172 173 163 162 163 167 175 172 154 126 97 93 93 77 60 58 65 65 57 48 45 44 44 45 46 47 52 61 70 78 85 88 88 86 85 87 89
236 237 223 197 163 217 234 204 181 195 173 137 142 156 154 155 162 151 132 118 109 122 160 171 164 160 162 162 159 153 156 169 172 164 153 133 107 107 103 67 57 68 77 70 57 48 47 50 53 55 54 54 57 65 73 80 86 90 91 89 87 87 90
247 250 222 193 175 232 244 181 154 175 167 149 155 162 151 153 160 151 142 143 146 149 166 185 176 162 155 159 161 153 151 166 168 163 157 136 115 122 102 49 63 81 80 69 63 58 58 61 63 62 59 55 58 70 79 83 88 92 92 91 90 91 93
262 269 210 176 168 220 270 122 118 135 158 152 154 152 146 152 157 154 145 143 150 155 156 164 170 161 156 157 159 150 143 156 167 166 158 130 122 131 92 64 86 90 76 73 76 73 70 69 67 65 62 57 57 71 84 88 89 92 94 95 96 98 99
Height
762 762 764 764 770 780 787 788 790 792 788 789 810 828 827 826 831 831 826 819 809 803 796 790 790 789 786 786 785 784 783 780 780 781 780 779 778 777 777 777 777 778 780 782 784 786 788 790 792 794 795 797 799 801 803 805 807 810 812 814 816 818 819
765 761 762 763 766 770 780 788 788 787 790 791 800 820 832 837 837 830 827 825 818 815 807 795 792 791 788 788 786 785 785 782 782 782 780 779 777 776 777 777 778 779 779 781 782 784 786 787 789 791 793 795 797 799 801 803 805 807 809 811 813 816 817
768 760 763 770 770 767 771 779 780 784 796 801 803 816 828 836 841 835 829 831 825 815 806 796 794 794 790 789 788 786 786 784 784 783 780 779 777 776 777 777 778 779 781 785 786 787 789 790 791 791 792 794 796 798 799 801 803 804 806 809 811 813 815
771 766 770 781 782 775 772 776 780 785 795 802 806 815 819 824 840 843 832 829 820 805 798 793 792 792 790 789 788 786 787 786 785 784 781 779 778 777 777 776 776 777 779 784 787 789 792 795 796 795 795 795 794 796 798 799 801 803 805 807 809 811 813
776 777 778 782 782 780 781 784 788 791 797 803 806 816 821 819 832 842 839 834 814 793 791 790 787 789 787 787 788 786 786 785 784 784 782 780 779 778 775 775 776 776 778 781 782 784 787 789 792 793 795 796 794 795 796 797 799 801 803 805 806 809 810
781 781 778 778 777 777 779 781 786 790 795 802 808 821 828 822 824 831 837 836 811 788 789 789 784 786 785 785 787 786 786 785 785 784 782 781 780 778 776 775 776 777 777 779 780 781 783 785 787 789 791 794 795 795 795 796 798 799 801 802 804 806 808
783 780 776 777 777 776 777 780 785 789 790 794 803 816 822 823 827 827 831 833 809 788 790 789 784 785 784 784 786 785 785 785 785 784 781 780 779 778 778 777 776 777 776 777 778 779 782 784 785 787 788 789 792 793 794 795 796 797 798 800 801 803 805
781 775 773 774 775 776 780 784 787 789 789 790 795 803 808 817 827 825 830 834 809 787 790 790 786 786 784 784 785 784 785 785 785 785 782 780 779 778 778 777 777 778 777 777 777 776 779 781 783 785 786 786 787 789 793 794 794 795 796 798 800 801 803
800 792 789 785 780 779 783 787 790 789 789 792 796 801 805 813 822 820 824 828 806 786 789 788 786 787 785 784 784 783 785 786 786 786 783 782 780 779 778 777 776 777 778 779 778 776 776 777 779 781 782 784 784 785 788 790 792 793 794 796 798 799 801
817 813 807 796 788 785 785 787 789 789 790 791 794 803 808 812 820 821 816 814 800 785 786 786 785 787 785 783 784 783 785 787 787 787 784 783 781 780 779 778 776 776 777 778 779 779 778 777 778 779 779 781 782 782 784 785 787 790 792 794 796 797 798
795 794 791 788 785 786 787 786 786 788 792 793 793 803 809 807 817 821 808 802 798 788 785 785 784 785 785 783 783 783 784 786 787 786 785 783 782 781 780 778 777 776 776 777 777 778 779 779 779 779 779 779 780 781 781 782 783 786 788 791 793 794 796
778 781 783 785 783 782 785 785 784 786 792 795 793 797 800 801 812 816 801 798 801 791 782 782 780 782 784 783 783 784 785 786 786 786 785 784 782 781 780 779 778 777 776 776 776 777 777 778 778 779 779 779 779 780 780 780 781 782 785 787 790 792 794
780 786 786 784 781 782 785 784 782 784 790 793 790 791 795 794 798 800 794 797 798 787 779 780 780 782 784 784 785 786 786 787 787 786 786 785 783 782 781 780 778 777 776 774 774 775 775 776 777 777 778 778 778 779 779 779 780 780 782 784 786 789 791
781 785 786 784 781 784 786 783 783 785 788 790 788 790 795 793 791 794 796 797 791 781 778 781 784 787 786 785 787 787 787 788 788 787 786 786 784 783 781 780 779 777 776 774 773 773 773 774 775 775 775 775 776 777 777 778 778 779 780 781 782 784 787
784 782 782 785 785 785 784 783 785 787 790 793 792 793 796 796 796 799 799 796 788 780 780 784 787 788 785 785 787 787 788 790 788 787 787 786 785 783 781 780 779 777 775 774 773 772 772 773 773 774 774 774 774 774 775 776 776 777 778 779 780 781 782
791 783 783 787 786 787 788 785 783 783 785 790 790 789 789 789 792 796 797 794 785 778 781 785 786 786 785 786 787 788 790 791 789 788 787 786 785 783 781 780 779 778 776 774 773 772 772 772 772 773 773 772 773 772 772 773 774 776 777 777 778 778 779
792 790 790 788 787 796 798 787 779 779 781 785 786 785 784 783 784 789 791 787 781 781 784 783 783 784 786 786 787 788 789 789 788 787 785 784 784 782 781 780 778 777 776 774 773 771 771 771 771 771 771 771 771 770 770 771 772 773 774 774 775 776 777
789 794 791 788 798 806 798 783 778 779 778 780 783 783 782 782 783 784 784 783 783 785 784 780 781 784 786 787 787 787 787 787 788 787 785 784 783 781 780 779 777 777 775 773 772 771 770 771 770 770 770 769 769 769 769 769 769 770 771 771 772 773 774
790 794 791 800 811 801 783 779 781 780 778 778 779 782 783 783 784 782 782 784 784 784 784 783 784 786 787 787 786 785 786 786 786 787 786 784 783 781 780 778 777 776 774 773 771 770 770 770 769 769 768 767 767 767 767 767 767 767 768 768 769 770 771
793 794 797 807 805 788 778 781 781 777 779 780 780 783 782 781 782 780 779 783 785 785 786 786 786 787 787 785 785 785 785 784 785 786 785 783 782 781 779 778 776 774 773 772 771 770 770 769 769 768 767 767 766 765 765 765 765 766 766 766 766 767 768
795 795 798 798 794 789 784 780 776 774 775 774 775 780 779 776 778 779 777 780 784 784 786 787 785 785 784 783 785 785 784 783 784 783 783 782 781 780 778 777 775 774 773 772 771 770 769 769 769 768 767 766 765 763 763 763 763 763 764 764 764 765 765
796 796 798 800 802 798 783 771 769 769 769 769 768 775 778 773 773 776 775 776 780 782 784 786 784 783 783 784 784 784 783 783 782 782 782 781 780 779 778 776 774 773 772 771 770 770 769 768 768 767 765 765 763 762 761 761 761 761 760 761 762 763 763
794 790 794 800 800 789 773 765 765 767 769 767 767 780 785 772 768 774 773 773 778 778 780 782 782 784 788 786 783 782 782 782 781 781 781 779 779 778 777 775 774 772 772 771 770 769 768 767 766 765 764 763 761 759 758 758 758 757 757 758 759 760 761
788 785 789 794 789 776 767 765 766 769 767 764 777 798 792 768 765 772 770 770 775 775 778 782 781 783 785 783 780 780 780 780 780 780 780 779 778 777 776 775 774 773 772 771 769 768 768 766 765 764 763 761 759 757 755 755 754 753 754 755 756 757 758
786 787 789 790 783 770 764 765 765 766 766 772 789 797 778 760 765 770 767 768 772 773 776 779 777 778 779 778 778 778 779 779 780 779 779 778 777 777 776 775 774 773 772 771 770 768 767 765 764 763 761 759 757 754 752 751 750 750 751 752 753 755 755
788 787 786 791 784 765 758 764 765 764 771 782 783 772 761 759 764 766 766 768 769 771 774 775 775 776 777 777 778 778 778 779 778 778 778 777 777 776 776 775 774 773 772 771 770 768 766 764 763 761 760 758 755 753 750 748 746 746 747 748 750 752 753
788 789 790 795 785 763 754 762 766 766 769 770 762 758 761 763 761 763 767 768 768 770 772 774 776 777 777 778 778 777 778 778 777 777 777 777 777 776 776 775 774 773 772 771 769 768 766 764 762 760 758 756 753 751 747 744 743 742 743 744 746 748 750
780 785 784 778 766 755 751 754 757 759 758 754 752 754 760 761 761 764 766 765 767 769 769 773 777 777 777 778 777 777 778 777 776 777 777 777 777 776 775 775 774 773 773 771 770 768 766 764 761 759 757 754 751 749 745 742 741 740 740 742 743 745 747
766 768 765 757 753 754 753 750 750 751 750 751 752 752 754 759 762 763 763 764 766 767 768 772 775 775 776 776 776 777 777 776 776 776 776 777 777 776 776 775 774 774 773 771 770 769 766 764 761 759 757 754 751 748 745 742 740 739 739 740 741 743 745
760 759 756 754 754 754 752 750 751 750 750 752 753 751 753 756 758 760 761 761 762 766 768 770 773 775 775 775 776 776 776 775 776 776 776 777 776 776 776 775 774 774 773 772 771 769 766 764 762 760 757 754 752 749 746 743 741 740 740 740 741 742 744
761 760 756 755 754 753 751 751 752 750 750 752 752 752 753 754 756 759 760 759 762 765 766 766 769 772 773 774 775 775 775 776 776 775 776 777 776 776 776 775 774 774 773 772 771 769 767 765 763 761 759 756 753 751 748 745 743 742 742 743 743 744 746
762 761 759 756 755 753 752 752 751 750 750 751 752 753 753 754 757 759 759 761 763 764 764 766 767 770 772 773 774 774 775 776 776 776 777 777 777 777 776 775 775 774 773 773 772 770 769 767 765 764 761 759 756 754 751 749 746 745 746 747 747 748 750
762 762 760 757 756 754 751 751 751 749 749 750 752 753 754 755 757 759 761 762 762 762 764 765 766 769 772 772 772 774 775 775 776 776 777 777 777 777 777 777 776 775 774 774 773 772 770 769 768 766 764 762 760 757 755 753 751 749 750 751 751 753 754
763 758 754 754 755 753 750 748 748 748 749 750 751 753 754 755 757 759 760 762 762 763 763 764 765 768 770 771 772 774 774 775 776 776 776 777 778 778 778 778 777 776 776 775 774 773 772 771 770 768 767 766 764 761 759 758 755 754 755 756 757 758 759
758 750 748 751 751 748 745 744 746 747 748 749 750 752 753 755 756 757 758 761 763 764 764 764 765 766 768 770 772 773 774 775 775 776 777 777 778 778 779 779 778 778 777 776 776 775 774 773 772 771 770 769 768 766 764 762 760 760 760 761 762 764 765
751 747 746 748 748 746 745 745 746 747 748 749 750 751 752 754 756 756 757 759 761 763 764 765 765 765 768 770 771 772 774 775 775 776 777 777 778 779 780 780 780 780 778 778 777 776 776 775 774 773 773 773 772 770 769 767 766 765 765 766 767 769 771
748 746 745 747 747 747 747 747 747 748 748 749 750 751 753 754 755 756 757 758 760 761 763 764 765 766 767 769 771 772 774 775 776 777 777 777 779 779 780 781 781 781 780 780 779 778 777 776 776 776 776 776 776 774 773 771 771 770 770 771 772 774 776